[[{"header":{"parameterUnit":"m.s-1","parameterCategory":1,"la1":30.2992,"la2":30.254,"lo1":-89.0895,"lo2":-89.0443,"dy":0.0025,"dx":0.0025,"nx":19,"ny":19,"refTime":"2026-03-25T03:00:00:Z","depth":0,"parameterNumber":2,"parameterNumberName":"U-component_of_WINDS"},"data":[0,0,0,0.0918,0.0919,0.0944,0.0944,0.096,0.096,0,0,0,0,0,0,0,0,0,0,0,0.0903,0.0903,0.0918,0.0919,0.0944,0.0944,0.096,0.096,0,0,0,0,0,0,0,0,0,0,0,0.0903,0.0903,0.0903,0.0919,0.0944,0.0944,0.096,0.0946,0,0,0,0,0,0,0,0,0,0,0.0924,0.0903,0.0903,0.0903,0.0919,0.0944,0.0944,0.0946,0.0947,0.0942,0,0.0937,0,0.0948,0.096,0.096,0,0,0,0.0924,0.0902,0.0916,0.0903,0.0919,0.0944,0.0934,0.0947,0.0948,0.0943,0.0937,0.0938,0.0949,0.096,0.096,0.0914,0.0913,0,0,0.0923,0.0903,0.0915,0.0916,0.0913,0.0933,0.0935,0.0948,0.0939,0.0937,0.0939,0.0949,0.096,0.096,0.0914,0.0914,0,0,0,0.0915,0.0901,0.0916,0.0915,0.0921,0.0934,0.0935,0.0938,0.0945,0.0939,0.0949,0.096,0.096,0.0915,0.0914,0.0869,0,0,0,0.0915,0.0897,0.0915,0.0903,0.0921,0.093,0.0926,0.0944,0.0946,0.0949,0.096,0.096,0.0915,0.0914,0.0872,0.0851,0,0,0,0.0904,0.0896,0.0897,0.0902,0.0912,0.0931,0.0938,0.0945,0.0952,0.096,0.096,0.0916,0.0915,0.0874,0.0854,0.083,0,0,0,0.0886,0.0858,0.0896,0.0868,0.0911,0.0904,0.0938,0.0934,0.0935,0.096,0.0915,0.0914,0.0874,0.0857,0.0832,0.0804,0.0792,0,0,0.0839,0.0852,0.0837,0.0871,0.0852,0.0902,0.0875,0.0896,0.0915,0.0912,0.0912,0.0871,0.0854,0.0831,0.0732,0.0722,0,0,0,0.0815,0.0803,0.0803,0.0803,0.0819,0.0829,0.0856,0.0863,0.0862,0.091,0.0858,0.0849,0.0835,0.0823,0.0814,0.0802,0.0908,0.0908,0.0909,0.0718,0.0744,0.0719,0.0747,0.0748,0.0775,0.0776,0.079,0.0817,0.0804,0.0803,0.074,0.0725,0.0718,0.0706,0.0793,0.0792,0.0792,0.0792,0.0648,0.0635,0.067,0.0659,0.0685,0.0676,0.07,0.0719,0.0712,0.0744,0.0734,0.0764,0.0706,0.0697,0.0789,0.079,0.079,0.079,0.0791,0.0585,0.0583,0.0593,0.0595,0.0593,0.0623,0.0614,0.0639,0.0663,0.0653,0.0652,0.0653,0.0654,0.0651,0.0651,0.0651,0.0651,0.0651,0.065,0.0515,0.0527,0.0517,0.053,0.0532,0.0538,0.0564,0.0567,0.0576,0.0595,0.0595,0.062,0.0698,0.0714,0.0647,0.0648,0.0648,0.0648,0.0649,0.0429,0.0453,0.0437,0.0439,0.0454,0.0449,0.0482,0.0484,0.049,0.0484,0.0513,0.0567,0.0581,0.0588,0.0602,0.0509,0.0509,0.0509,0.0509,0.0374,0.0384,0.0372,0.0373,0.0378,0.0405,0.0384,0.0403,0.0426,0.043,0.0448,0.047,0.0476,0.0486,0.0496,0.0509,0.0395,0.0395,0.0395,0.0321,0.0332,0.031,0.0334,0.0347,0.0357,0.0336,0.0334,0.0366,0.039,0.0433,0.0438,0.0474,0.0485,0.0508,0.0522,0.0547,0,0]},{"header":{"parameterUnit":"m.s-1","parameterCategory":1,"la1":30.2992,"la2":30.254,"lo1":-89.0895,"lo2":-89.0443,"dy":0.0025,"dx":0.0025,"nx":19,"ny":19,"refTime":"2026-03-25T03:00:00:Z","depth":0,"parameterNumber":3,"parameterNumberName":"V-component_of_WINDS"},"data":[0,0,0,2.1812,2.1811,2.1746,2.1746,2.1671,2.167,0,0,0,0,0,0,0,0,0,0,0,2.1837,2.1837,2.1812,2.1811,2.1746,2.1746,2.1671,2.167,0,0,0,0,0,0,0,0,0,0,0,2.1838,2.1837,2.1837,2.181,2.1746,2.1746,2.1671,2.1717,0,0,0,0,0,0,0,0,0,0,2.1777,2.1808,2.1837,2.1837,2.181,2.1746,2.1746,2.1719,2.1714,2.1704,0,2.1699,0,2.1684,2.1666,2.1666,0,0,0,2.1805,2.1812,2.1789,2.1837,2.181,2.1747,2.1774,2.1716,2.171,2.1698,2.1698,2.1695,2.1683,2.1666,2.1665,2.1633,2.1633,0,0,2.1808,2.1829,2.1793,2.1786,2.1799,2.1776,2.1772,2.1712,2.1713,2.1698,2.1693,2.1681,2.1665,2.1665,2.1633,2.1633,0,0,0,2.1822,2.1832,2.181,2.179,2.1778,2.1774,2.1769,2.1716,2.1707,2.1692,2.168,2.1665,2.1664,2.1633,2.1633,2.1659,0,0,0,2.1824,2.184,2.1812,2.1823,2.1779,2.1746,2.1774,2.1711,2.1704,2.1681,2.1665,2.1663,2.1633,2.1633,2.1658,2.1668,0,0,0,2.1839,2.1841,2.1835,2.1825,2.1798,2.1747,2.1735,2.1709,2.1697,2.1666,2.1663,2.1633,2.1633,2.1658,2.1666,2.1665,0,0,0,2.1861,2.1858,2.1835,2.1827,2.1799,2.1765,2.1735,2.1707,2.1684,2.1664,2.1633,2.1633,2.1657,2.1665,2.1665,2.1668,2.1672,0,0,2.1868,2.1859,2.1853,2.1831,2.1807,2.1773,2.1751,2.1708,2.1685,2.1651,2.165,2.1659,2.1666,2.1665,2.1686,2.169,0,0,0,2.1862,2.1858,2.1847,2.1827,2.1796,2.177,2.173,2.1714,2.1685,2.1673,2.1658,2.1662,2.166,2.1661,2.1663,2.166,2.1635,2.1635,2.1635,2.19,2.1874,2.1861,2.1827,2.1808,2.1767,2.1748,2.172,2.1696,2.1693,2.1683,2.1699,2.1701,2.1703,2.17,2.1683,2.1683,2.1683,2.1683,2.1908,2.1897,2.1869,2.1847,2.1818,2.1798,2.1758,2.1743,2.1719,2.1705,2.1702,2.1688,2.1707,2.1703,2.1685,2.1685,2.1684,2.1684,2.1684,2.1929,2.1919,2.1903,2.1871,2.185,2.1814,2.1794,2.1767,2.1742,2.174,2.1725,2.1725,2.172,2.1735,2.1735,2.1735,2.1735,2.1735,2.1735,2.1958,2.1938,2.1925,2.1893,2.1877,2.1853,2.1813,2.1795,2.1769,2.1751,2.1751,2.1728,2.1715,2.1711,2.1736,2.1736,2.1736,2.1736,2.1736,2.1974,2.1966,2.1946,2.1931,2.1891,2.1872,2.184,2.1807,2.1789,2.1779,2.1757,2.1752,2.174,2.1738,2.1735,2.1764,2.1764,2.1764,2.1764,2.1991,2.1984,2.1957,2.1934,2.1908,2.1877,2.1854,2.1822,2.1788,2.1775,2.1767,2.1761,2.176,2.1749,2.1746,2.1743,2.1774,2.1774,2.1774,2.1999,2.1988,2.1974,2.1943,2.1911,2.1883,2.186,2.1833,2.1792,2.1773,2.1764,2.1763,2.1754,2.1752,2.1732,2.1729,2.1722,0,0]}]]